Dewpoint
-5 -5 -5 -7 -8 -7 -8 -8 -8 -9 -12 -13 -12 -13 -12 -10 -10 -10 -10 -10 -11 -10 -8 -8 -7 -6 -6 -5 -4 -3 -5 -7 -7 -9 -13 -17 -19 -15 -15 -14 -15 -14 -14 -13
-5 -4 -6 -7 -7 -7 -6 -5 -5 -8 -11 -12 -12 -12 -14 -12 -11 -10 -10 -11 -11 -10 -8 -8 -6 -5 -5 -4 -3 -3 -5 -7 -8 -11 -14 -18 -16 -15 -14 -14 -14 -14 -15 -14
-4 -6 -4 -5 -5 -5 -5 -5 -6 -7 -11 -12 -9 -8 -11 -13 -12 -11 -11 -12 -11 -11 -9 -8 -6 -5 -4 -4 -3 -4 -5 -7 -9 -12 -14 -18 -16 -16 -17 -15 -15 -13 -15 -17
-4 -5 -5 -3 -2 -3 -2 -5 -6 -8 -8 -5 -10 -3 -6 -9 -12 -12 -12 -12 -13 -11 -9 -8 -6 -5 -4 -3 -3 -5 -6 -7 -11 -13 -17 -18 -18 -17 -14 -11 -11 -14 -16 -20
-4 -4 -4 -2 -3 -3 -2 -4 -4 -6 -4 -4 -5 -3 -3 -11 -10 -11 -12 -12 -13 -12 -11 -8 -7 -5 -3 -3 -4 -5 -6 -9 -12 -13 -17 -18 -18 -16 -14 -12 -13 -17 -19 -23
-3 -3 -3 -4 -4 -2 -2 -1 1 1 -2 1 -2 -2 -0 -5 -8 -11 -12 -13 -13 -13 -11 -8 -6 -3 -3 -3 -5 -5 -7 -11 -12 -14 -17 -19 -18 -16 -15 -13 -16 -18 -21 -25
-2 -1 -3 -3 -1 -1 -1 0 3 2 1 5 -1 -2 -1 -5 -6 -10 -11 -12 -13 -13 -11 -8 -4 -3 -3 -4 -4 -5 -9 -12 -12 -15 -19 -19 -18 -14 -13 -12 -13 -16 -21 -29
-0 0 1 -1 -3 1 3 3 4 -0 3 4 1 4 4 -5 -6 -7 -7 -12 -12 -11 -9 -7 -4 -3 -4 -4 -4 -7 -11 -12 -13 -18 -19 -19 -17 -13 -13 -13 -16 -19 -23 -28
1 2 0 1 -0 0 1 5 3 5 3 4 3 2 -1 -4 -4 -6 -7 -9 -9 -9 -7 -6 -4 -4 -4 -3 -5 -8 -11 -12 -14 -19 -19 -18 -16 -14 -14 -15 -17 -20 -25 -30
1 1 0 1 2 2 3 3 6 5 6 -0 1 2 5 2 -3 -4 -5 -4 -5 -5 -6 -4 -4 -4 -3 -4 -6 -10 -12 -12 -17 -19 -19 -18 -16 -14 -15 -16 -17 -21 -24 -29
4 1 1 1 4 4 5 5 4 4 2 -1 1 4 2 5 2 -3 -4 -4 -3 -4 -4 -4 -4 -3 -3 -4 -7 -10 -11 -13 -18 -19 -19 -18 -15 -14 -15 -15 -16 -20 -24 -27
5 4 4 4 4 3 2 4 4 7 5 3 3 3 -0 2 1 -3 -4 -4 -2 -4 -4 -4 -3 -3 -3 -5 -7 -10 -11 -14 -19 -19 -19 -17 -15 -15 -15 -15 -17 -21 -24 -26
5 4 5 5 4 3 4 4 2 2 4 6 7 6 -2 -1 -1 -3 -4 -3 -3 -4 -4 -3 -3 -3 -4 -6 -7 -10 -11 -17 -20 -19 -18 -16 -16 -16 -15 -16 -18 -23 -25 -25
5 7 4 5 5 4 5 6 4 5 5 4 4 4 1 0 -1 -3 -2 -3 -3 -4 -3 -3 -3 -3 -4 -6 -7 -10 -12 -19 -19 -19 -18 -18 -17 -16 -16 -17 -20 -24 -24 -24
5 6 6 6 6 5 5 5 7 5 5 5 4 2 1 -0 -1 -3 -3 -3 -3 -3 -3 -3 -3 -3 -5 -5 -7 -10 -14 -19 -18 -18 -20 -19 -17 -17 -18 -20 -21 -23 -24 -24
3 7 6 6 4 5 5 4 4 5 4 4 3 3 -1 -2 -2 -3 -2 -2 -3 -3 -3 -3 -3 -4 -5 -5 -7 -11 -16 -18 -18 -20 -21 -19 -18 -19 -19 -22 -23 -23 -23 -24
1 6 7 7 4 4 3 3 2 4 2 2 3 1 -2 -1 -1 -3 -2 -3 -3 -3 -4 -3 -3 -3 -4 -5 -7 -12 -17 -18 -19 -20 -21 -20 -19 -21 -21 -23 -24 -24 -23 -24
1 4 6 6 3 5 2 -2 -1 2 2 1 0 -0 -1 -3 -2 -3 -5 -5 -3 -4 -4 -3 -3 -4 -5 -6 -8 -13 -18 -18 -19 -21 -22 -21 -21 -22 -23 -25 -26 -25 -24 -24
-0 2 6 6 3 2 -1 -4 -1 0 -2 0 1 -1 -1 -3 -1 -2 -4 -6 -6 -6 -5 -5 -4 -4 -5 -5 -8 -14 -18 -19 -20 -21 -22 -23 -23 -24 -25 -27 -27 -26 -25 -26
2 2 5 4 3 3 -0 -4 -7 -5 -3 -6 -0 -1 -2 -3 1 -0 -4 -5 -5 -5 -6 -5 -3 -4 -5 -5 -8 -15 -19 -20 -20 -22 -23 -24 -25 -26 -27 -28 -28 -28 -27 -28
5 5 6 4 2 2 -1 -3 -7 -5 -4 -4 -3 -1 -3 -2 -4 -6 -3 -5 -5 -6 -5 -4 -3 -4 -4 -6 -9 -16 -19 -20 -22 -22 -23 -25 -26 -27 -28 -29 -29 -29 -29 -30
5 5 5 4 2 3 -2 -8 -8 -4 -4 -5 -2 -1 -2 -3 -4 -5 -3 -3 -4 -4 -4 -4 -4 -4 -4 -6 -12 -16 -19 -20 -22 -22 -24 -27 -27 -28 -29 -29 -30 -30 -30 -32
3 1 2 2 3 -1 -2 -2 -4 -5 -5 -6 -5 -2 -3 -4 -4 -4 -3 -3 -3 -4 -4 -4 -4 -4 -5 -7 -14 -17 -20 -21 -22 -22 -26 -27 -27 -28 -29 -29 -30 -32 -32 -35
0 1 1 -0 -2 -2 -2 -2 -5 -6 -8 -7 -5 -5 -3 -5 -5 -5 -5 -3 -3 -3 -3 -4 -4 -4 -5 -9 -13 -15 -21 -21 -21 -22 -25 -26 -27 -28 -28 -29 -30 -31 -33 -35
-1 1 1 1 -0 -2 -2 -2 -6 -7 -8 -5 -5 -5 -3 -7 -6 -6 -5 -4 -3 -3 -3 -4 -4 -5 -6 -14 -13 -14 -20 -21 -21 -21 -21 -23 -25 -27 -27 -28 -29 -30 -32 -34
2 1 1 1 -1 -1 -2 -2 -4 -7 -8 -5 -6 -5 -4 -8 -9 -7 -6 -6 -4 -4 -4 -4 -4 -5 -10 -14 -13 -14 -19 -21 -20 -21 -21 -21 -23 -25 -26 -27 -28 -29 -31 -32
Wind_Speed
5 6 1 7 2 3 1 2 3 3 4 5 8 4 8 23 20 20 26 25 24 23 22 19 20 17 13 9 5 4 7 12 16 19 22 23 23 22 22 24 25 28 28 29
5 1 7 3 4 6 2 4 5 2 1 4 2 9 7 13 23 33 31 28 27 24 24 22 22 19 13 8 5 4 8 12 17 20 22 22 20 21 22 22 25 28 30 30
5 5 4 3 1 4 5 5 5 4 2 1 4 6 3 6 14 20 27 29 29 27 27 26 25 20 15 10 5 5 8 13 17 19 20 19 18 20 22 23 24 26 29 31
4 5 3 4 4 5 8 9 7 5 4 3 2 5 5 3 9 9 24 32 28 28 27 28 27 22 16 11 6 5 9 14 17 18 20 20 21 23 23 22 23 26 28 32
7 4 4 2 2 2 8 5 7 4 4 3 1 2 6 1 4 11 18 31 33 28 30 32 28 22 16 10 5 5 9 13 15 18 19 19 21 22 21 20 23 26 29 32
7 3 2 4 3 6 3 5 7 4 2 2 4 5 5 3 5 2 12 25 31 27 30 31 28 23 16 10 4 5 9 12 14 17 18 20 21 21 21 22 26 28 30 32
1 2 3 1 4 7 8 5 3 4 3 4 1 1 8 6 4 5 12 20 28 29 30 34 32 24 16 9 3 4 8 11 14 16 18 20 21 20 22 22 26 29 30 33
2 5 5 7 2 6 3 1 3 5 0 4 2 4 4 3 10 8 12 25 29 29 30 35 30 22 15 8 2 4 7 10 13 16 18 18 19 19 21 23 25 28 29 31
2 0 4 5 2 3 2 4 1 3 2 2 3 5 4 6 9 13 17 27 31 31 34 34 27 19 13 7 1 4 7 9 13 15 16 17 18 19 22 22 25 28 30 31
5 1 2 3 4 10 4 5 2 3 1 3 5 2 4 8 7 4 6 17 27 31 34 32 25 19 13 6 1 3 6 9 13 14 15 17 18 19 20 22 27 29 30 30
2 2 4 2 1 4 1 2 5 5 3 3 1 5 4 4 5 5 5 16 27 33 35 31 25 18 11 6 2 3 5 10 12 13 15 16 18 19 20 23 27 29 30 30
3 1 1 1 0 1 1 4 5 3 3 2 2 6 3 3 4 11 13 19 25 33 34 29 23 18 11 6 4 3 6 9 11 13 14 16 17 19 21 25 27 29 30 30
5 2 2 4 3 3 2 3 4 4 3 6 3 5 1 4 7 10 20 24 29 33 32 28 23 17 11 8 4 3 6 8 10 12 14 16 18 20 23 25 27 29 29 30
3 3 4 4 2 3 3 5 6 5 2 4 7 9 6 1 5 11 18 25 31 32 31 28 23 16 12 8 4 4 5 7 9 11 13 16 18 21 23 24 27 28 29 30
6 4 4 8 10 6 6 5 7 8 8 6 4 9 8 6 9 19 24 29 31 31 31 27 22 18 14 10 6 4 4 6 9 11 13 16 18 20 22 24 26 28 28 29
8 4 2 6 11 9 6 9 11 10 3 11 11 17 8 2 13 21 27 32 31 32 31 27 22 18 14 10 6 4 3 5 8 10 13 14 17 20 22 24 26 28 28 28
5 4 3 4 5 3 4 9 9 5 5 6 8 11 5 4 11 26 29 35 35 34 31 28 24 18 14 10 6 3 3 6 7 10 12 13 16 19 22 23 25 27 28 28
7 5 3 3 5 2 7 3 5 9 6 12 5 5 11 11 20 23 33 36 34 32 30 27 22 19 15 11 8 4 4 6 7 9 11 13 15 18 20 22 25 26 27 29
25 6 3 0 3 6 5 2 3 5 6 7 12 5 6 9 13 9 27 31 29 28 26 23 21 18 16 12 8 5 6 6 7 9 11 13 15 17 19 22 24 26 26 29
15 13 3 1 1 2 5 5 5 4 4 4 7 8 11 18 4 5 27 30 28 25 23 23 22 20 17 13 8 6 7 8 8 9 10 13 14 16 19 21 23 25 26 28
5 5 4 1 2 7 6 9 6 2 5 8 7 18 24 6 8 15 29 29 25 22 23 24 23 21 17 13 10 9 8 9 8 8 10 13 14 15 18 19 21 23 25 26
3 4 3 2 2 5 2 6 3 5 6 6 3 15 23 10 9 21 31 30 27 25 25 24 25 22 18 14 11 10 10 9 8 9 10 12 13 14 16 18 20 21 22 24
1 2 3 7 6 5 8 10 8 5 7 5 3 9 20 14 19 26 30 28 26 24 25 25 25 23 19 14 12 11 10 10 9 9 9 11 12 13 15 16 18 19 21 23
9 10 3 1 3 6 19 19 6 4 8 9 8 7 19 19 24 28 30 29 27 26 26 26 27 24 21 17 14 10 10 11 9 9 10 10 11 12 13 14 17 17 20 22
11 12 5 4 8 12 14 9 6 4 10 9 4 13 23 20 24 28 29 28 26 25 27 27 26 23 20 19 16 13 11 11 10 9 9 9 10 11 11 13 15 16 18 21
7 5 1 2 17 10 16 18 6 4 8 4 7 19 22 23 23 28 28 26 25 26 28 28 25 21 21 20 17 15 13 10 8 8 9 8 8 9 10 11 13 14 16 18
Wind_Direction
30 61 200 226 177 55 138 216 260 228 227 154 219 261 200 195 203 207 206 203 200 201 200 203 197 196 202 207 237 297 341 344 349 349 352 355 355 356 357 359 358 358 357 355
22 294 225 188 233 248 268 329 288 258 71 181 162 257 205 191 212 210 208 210 205 199 198 200 196 200 204 214 231 302 333 344 349 352 357 358 356 359 1 360 2 2 4 1
169 233 122 195 272 258 236 209 229 251 84 271 4 297 213 232 220 215 219 219 213 206 199 198 197 200 201 209 236 305 331 348 348 355 359 359 359 0 1 2 1 1 4 3
229 269 240 307 250 221 264 204 212 157 128 232 139 276 295 216 226 207 213 219 219 207 204 202 198 198 199 208 235 301 337 345 349 359 358 3 4 6 5 359 356 1 4 5
242 318 305 314 328 228 248 151 143 130 109 85 296 27 269 39 245 227 211 216 217 210 206 203 197 197 195 208 235 308 337 344 356 2 2 6 8 8 3 357 357 359 3 6
230 248 211 197 213 75 335 57 51 55 71 24 247 143 283 234 231 295 202 207 212 204 205 199 192 190 193 200 228 313 340 350 3 4 6 8 8 6 3 2 0 360 1 5
296 197 315 263 61 4 24 40 7 358 10 226 43 87 246 267 250 228 202 186 201 197 197 190 186 183 191 196 221 326 350 357 7 7 8 9 6 7 7 5 2 359 2 4
141 332 0 343 103 156 114 3 139 202 206 288 110 238 260 4 356 319 235 185 183 186 189 183 182 183 187 184 214 349 0 5 10 11 11 8 8 10 10 8 6 5 5 2
359 291 330 26 5 123 2 49 357 63 54 23 248 301 337 350 30 46 113 152 167 177 180 177 176 180 178 173 140 14 15 11 16 15 12 13 12 13 13 11 10 10 10 6
286 44 307 309 34 23 138 127 45 41 313 288 299 292 260 342 350 53 106 137 158 169 171 171 172 173 167 161 110 32 26 21 20 17 15 17 17 17 14 12 13 12 10 8
312 158 288 12 76 166 30 63 53 103 145 163 314 277 209 265 308 180 145 158 161 168 168 168 168 166 162 157 140 52 40 28 23 20 19 19 20 20 15 15 13 13 11 11
319 289 299 270 63 270 90 176 146 124 224 108 106 275 176 269 278 171 160 165 163 167 166 168 167 166 163 167 129 70 52 29 25 23 21 23 23 20 20 18 15 13 13 12
332 316 1 348 353 18 193 168 93 86 101 192 171 259 223 84 90 157 158 164 166 165 167 168 169 169 171 164 130 106 61 28 29 26 26 27 26 23 23 20 17 16 16 15
275 251 213 216 153 150 230 185 168 140 154 162 226 278 302 52 146 149 162 168 168 171 170 171 173 175 176 157 149 109 58 34 34 32 31 30 27 26 25 22 20 18 19 20
1 241 213 251 260 253 222 236 218 200 193 182 247 221 252 228 189 176 171 170 172 173 175 178 180 179 178 170 157 129 57 41 44 37 34 34 29 29 28 26 24 22 23 24
2 299 271 268 253 249 270 250 231 212 193 251 264 277 194 226 171 163 171 172 174 179 182 185 185 184 181 177 161 123 60 60 54 40 40 36 32 32 32 29 28 27 28 29
310 279 302 271 320 298 328 226 210 172 197 178 197 234 145 178 182 174 173 183 180 185 188 190 189 188 183 172 158 125 91 76 62 49 47 40 34 34 34 32 33 32 31 33
247 266 290 284 0 14 243 216 198 197 226 210 239 188 193 197 196 188 193 187 189 191 193 192 190 187 179 170 165 164 119 91 73 59 53 45 39 37 36 36 38 36 34 36
214 211 280 285 246 286 316 31 146 173 291 215 229 176 169 145 141 164 198 197 196 198 196 193 191 184 176 176 174 167 131 108 85 67 57 50 44 41 40 39 40 40 38 38
192 209 255 283 356 270 249 297 358 137 313 332 200 166 143 141 139 229 194 197 199 198 197 193 187 181 180 177 176 166 139 116 95 74 62 55 49 46 46 42 42 43 40 42
162 183 192 322 314 290 265 290 332 57 246 321 301 184 168 178 186 197 186 191 196 196 196 191 184 185 180 176 174 165 147 123 104 82 66 58 52 49 49 45 44 45 44 43
161 143 167 177 256 286 279 341 30 236 308 320 34 176 179 167 155 161 174 184 190 192 189 186 184 183 179 179 175 168 150 130 113 91 73 66 59 53 53 49 48 47 46 46
312 211 208 179 213 252 295 284 295 291 298 311 303 185 186 167 156 161 168 179 186 189 186 185 186 180 178 178 174 170 155 135 124 104 86 75 67 59 56 54 52 49 49 48
318 316 264 140 303 252 312 324 273 284 303 310 266 208 181 172 163 164 169 176 181 185 185 183 184 182 176 175 168 177 160 141 132 116 98 84 76 66 60 59 56 50 52 51
251 320 304 278 277 304 308 318 255 296 328 337 160 179 175 170 161 163 170 176 180 180 183 182 184 182 177 172 171 172 166 149 143 131 110 94 83 76 66 60 59 56 54 54
222 234 350 282 322 312 296 328 257 294 339 15 142 153 170 172 163 167 170 176 180 178 179 180 182 182 178 174 173 171 166 156 151 138 124 109 92 81 74 68 63 60 58 56
Height
1497 1505 1510 1506 1504 1506 1507 1512 1511 1510 1505 1509 1511 1510 1511 1512 1516 1517 1518 1521 1524 1527 1530 1533 1535 1537 1538 1538 1538 1538 1537 1535 1532 1529 1524 1519 1516 1512 1507 1503 1499 1494 1488 1481
1503 1509 1501 1501 1501 1504 1505 1509 1510 1506 1505 1510 1509 1508 1507 1508 1506 1507 1512 1517 1521 1524 1527 1531 1534 1536 1537 1538 1538 1538 1536 1534 1531 1527 1522 1518 1515 1511 1506 1503 1498 1493 1487 1480
1505 1501 1497 1499 1501 1504 1504 1508 1507 1505 1506 1506 1508 1508 1504 1502 1503 1506 1509 1513 1517 1520 1523 1528 1531 1534 1536 1537 1538 1538 1536 1533 1530 1527 1523 1519 1515 1510 1506 1502 1498 1494 1487 1480
1501 1496 1497 1499 1502 1501 1505 1494 1496 1504 1509 1516 1508 1524 1502 1499 1500 1501 1502 1507 1512 1517 1522 1525 1529 1532 1535 1536 1538 1537 1536 1533 1530 1526 1522 1518 1514 1509 1505 1502 1499 1493 1486 1479
1502 1497 1496 1498 1499 1499 1497 1489 1494 1501 1509 1511 1513 1526 1504 1498 1497 1495 1496 1500 1507 1514 1517 1520 1526 1531 1534 1536 1537 1537 1536 1533 1530 1526 1522 1518 1514 1510 1507 1503 1498 1492 1486 1478
1497 1493 1494 1493 1494 1495 1498 1496 1499 1508 1513 1536 1512 1521 1511 1498 1489 1486 1488 1494 1502 1509 1514 1520 1526 1529 1533 1535 1536 1536 1535 1533 1530 1526 1522 1518 1514 1511 1507 1502 1496 1490 1484 1477
1495 1494 1492 1492 1495 1494 1502 1507 1532 1531 1541 1523 1509 1516 1501 1486 1485 1483 1484 1491 1498 1505 1511 1517 1522 1528 1532 1535 1536 1536 1534 1533 1530 1526 1523 1519 1515 1511 1507 1502 1497 1490 1483 1476
1509 1513 1499 1495 1494 1502 1507 1510 1528 1545 1534 1524 1510 1516 1494 1485 1484 1480 1482 1487 1495 1503 1509 1515 1522 1528 1532 1534 1536 1536 1535 1533 1530 1526 1523 1520 1516 1512 1508 1503 1498 1491 1484 1477
1527 1506 1500 1498 1495 1498 1508 1518 1514 1520 1526 1539 1518 1498 1486 1487 1488 1487 1486 1489 1494 1501 1508 1515 1523 1529 1532 1535 1536 1536 1535 1533 1530 1527 1524 1520 1517 1513 1509 1504 1499 1492 1485 1478
1520 1520 1504 1501 1498 1501 1502 1511 1520 1528 1531 1546 1521 1506 1505 1495 1494 1496 1496 1495 1498 1503 1510 1517 1524 1529 1532 1535 1536 1536 1535 1533 1531 1528 1525 1521 1518 1514 1510 1505 1499 1493 1486 1479
1516 1519 1510 1504 1508 1512 1515 1519 1526 1532 1549 1551 1549 1511 1498 1496 1497 1498 1500 1500 1500 1504 1511 1519 1525 1530 1533 1535 1536 1536 1536 1534 1532 1529 1526 1523 1519 1516 1511 1506 1500 1494 1488 1481
1518 1520 1521 1509 1507 1505 1505 1511 1518 1524 1536 1545 1547 1527 1495 1494 1493 1495 1499 1503 1505 1509 1514 1520 1526 1530 1533 1535 1536 1537 1536 1535 1533 1530 1527 1524 1521 1518 1513 1508 1502 1497 1490 1484
1522 1523 1525 1512 1509 1507 1508 1509 1519 1526 1527 1526 1525 1512 1493 1493 1493 1497 1499 1504 1508 1512 1516 1522 1527 1530 1533 1535 1537 1538 1537 1536 1534 1531 1529 1526 1523 1519 1514 1510 1504 1499 1493 1486
1521 1516 1517 1515 1504 1509 1511 1507 1512 1515 1524 1525 1517 1499 1495 1494 1496 1498 1502 1506 1509 1513 1518 1523 1527 1530 1533 1536 1538 1538 1538 1537 1535 1533 1531 1528 1524 1521 1517 1512 1507 1501 1495 1489
1523 1517 1512 1507 1502 1502 1500 1500 1505 1513 1505 1510 1500 1502 1490 1489 1492 1494 1501 1506 1510 1514 1519 1523 1526 1530 1533 1536 1538 1538 1538 1537 1536 1535 1532 1529 1527 1524 1520 1515 1510 1504 1498 1492
1525 1515 1511 1506 1497 1496 1496 1493 1494 1500 1502 1503 1498 1493 1485 1486 1489 1494 1499 1504 1509 1514 1518 1522 1526 1530 1533 1536 1538 1539 1539 1538 1537 1536 1534 1532 1529 1526 1522 1518 1513 1508 1502 1497
1533 1519 1511 1502 1495 1492 1497 1489 1485 1490 1491 1489 1496 1479 1481 1485 1485 1487 1496 1501 1506 1511 1515 1519 1524 1529 1534 1537 1539 1539 1539 1539 1539 1538 1536 1534 1532 1529 1526 1522 1517 1513 1507 1501
1525 1522 1515 1507 1498 1509 1482 1472 1474 1479 1478 1478 1474 1475 1475 1475 1478 1485 1491 1497 1504 1509 1513 1520 1525 1529 1534 1538 1539 1539 1540 1541 1541 1540 1538 1536 1534 1532 1530 1526 1522 1517 1513 1507
1520 1524 1518 1511 1507 1492 1473 1473 1476 1477 1472 1468 1469 1473 1475 1478 1482 1488 1492 1497 1501 1506 1513 1519 1524 1530 1534 1537 1538 1539 1541 1543 1542 1542 1540 1539 1538 1536 1534 1530 1527 1522 1518 1514
1514 1519 1517 1515 1506 1496 1481 1472 1470 1471 1485 1466 1467 1471 1474 1478 1490 1485 1488 1495 1502 1508 1513 1518 1525 1530 1534 1536 1538 1540 1543 1544 1545 1543 1542 1542 1541 1540 1537 1535 1532 1528 1524 1520
1506 1510 1511 1517 1521 1496 1476 1470 1469 1480 1487 1467 1465 1466 1470 1473 1475 1478 1486 1495 1502 1507 1512 1519 1525 1529 1533 1536 1539 1542 1544 1546 1546 1545 1545 1546 1545 1543 1541 1539 1537 1534 1530 1527
1498 1504 1507 1514 1515 1506 1474 1471 1473 1476 1469 1467 1465 1466 1469 1474 1475 1478 1485 1493 1500 1506 1512 1519 1523 1528 1533 1537 1539 1542 1545 1547 1547 1548 1548 1548 1548 1546 1544 1543 1541 1539 1537 1534
1499 1498 1498 1496 1491 1475 1473 1472 1471 1469 1468 1467 1467 1468 1471 1474 1476 1480 1486 1494 1500 1506 1512 1518 1522 1528 1533 1537 1540 1543 1545 1548 1548 1550 1550 1551 1551 1549 1548 1547 1546 1545 1543 1540
1505 1494 1491 1485 1477 1472 1470 1468 1469 1468 1467 1466 1465 1466 1469 1473 1477 1482 1488 1494 1500 1506 1511 1517 1522 1528 1532 1537 1541 1545 1546 1548 1550 1552 1553 1554 1554 1553 1552 1551 1551 1550 1548 1546
1516 1502 1488 1482 1472 1468 1468 1467 1468 1467 1465 1463 1461 1463 1469 1473 1478 1483 1489 1495 1501 1506 1511 1517 1522 1528 1533 1537 1541 1544 1547 1549 1551 1553 1555 1556 1556 1556 1555 1555 1555 1555 1553 1551
1501 1495 1492 1485 1478 1477 1470 1468 1467 1467 1466 1464 1463 1465 1471 1475 1479 1485 1490 1496 1501 1506 1511 1517 1523 1529 1533 1537 1540 1544 1547 1550 1553 1555 1556 1557 1558 1558 1559 1559 1559 1559 1558 1557